Regional Weather Roundup
Issued by NWS Upton, NY

Home | Current Version | Previous Version | Text Only | Print | Product List | Glossary On
Versions: 1 2 3 4 5 6 7 8 9 10 11 12 13 14 15 16 17 18 19 20 21 22 23 24 25 26 27 28 29 30 31 32 33 34 35 36 37 38 39 40 41 42 43 44 45 46 47 48 49 50
000
ASUS41 KOKX 311605
RWROKX

REGIONAL WEATHER ROUNDUP
NATIONAL WEATHER SERVICE NEW YORK NY
1200 PM EDT THU JUL 31 2014

NOTE: "FAIR" INDICATES FEW OR NO CLOUDS BELOW 12,000 FEET WITH NO
SIGNIFICANT WEATHER AND/OR OBSTRUCTIONS TO VISIBILITY.

NYZ071-072-176-178-NJZ106-104-311700-
NEW YORK CITY METRO AREA


CITY           SKY/WX    TMP DP  RH WIND       PRES   REMARKS
CENTRAL PARK   SUNNY     78  58  49 VRB6      30.12F
LAGUARDIA APRT MOSUNNY   79  55  43 SW16      30.09F
KENNEDY INTL   MOSUNNY   79  58  48 S12       30.11F
NEWARK/LIBERTY MOSUNNY   79  59  50 SW12      30.09F
BRNX BOT. GARD   N/A     77  55  47 SW17      30.11R
TETERBORO      PTSUNNY   82  58  43 S15       30.08F
$$

NYZ177-179-078>081-311700-
LONG ISLAND NEW YORK

CITY           SKY/WX    TMP DP  RH WIND       PRES   REMARKS
FARMINGDALE    SUNNY     78  56  46 SW13G20   30.11S
ISLIP          MOSUNNY   80  54  40 S14       30.10S
SHIRLEY        SUNNY     79  57  46 S13       30.12F
WESTHAMPTON    SUNNY     79  57  46 SW12G18   30.14S
MONTAUK POINT    N/A     78  62  57 S7        30.14R
$$

NYZ052-065-067-311700-
HUDSON VALLEY

CITY           SKY/WX    TMP DP  RH WIND       PRES   REMARKS
WHITE PLAINS   MOSUNNY   77  56  48 SW8       30.10S
NEWBURGH       PTSUNNY   73  61  64 W9        30.10S
MONTGOMERY     PTSUNNY   76  59  55 SW14G21   30.08S
POUGHKEEPSIE   PTSUNNY   76  59  55 SW9       30.07F
ALBANY         CLOUDY    71  60  68 S9G17     30.05F
$$

NJZ001-105-106-008-010-013-015-019>022-104-311700-
NEW JERSEY

CITY           SKY/WX    TMP DP  RH WIND       PRES   REMARKS
NEWARK/LIBERTY MOSUNNY   79  59  50 SW12      30.09F
TETERBORO      PTSUNNY   82  58  43 S15       30.08F
CALDWELL       SUNNY     77  59  53 VRB5      30.10F
MORRISTOWN     MOSUNNY   79  61  53 SW8G17    30.10S
SOMERVILLE     SUNNY     78  61  55 SW5       30.08S
LINDEN         FAIR      80  58  47 W7        30.11F
SUSSEX         SUNNY     79  60  52 SW9       30.09S
ANDOVER          N/A     75  58  55 SW9       30.10S
TRENTON        MOSUNNY   80  60  50 SW12G18   30.10S
MILLVILLE      MOSUNNY   80  63  55 SW8       30.11F
ATLANTIC CITY  SUNNY     81  59  47 SW12G17   30.11F
WRIGHTSTOWN    MOSUNNY   81  62  53 S10       30.08F
TOMS RIVER     MOSUNNY   82  57  42 SW8       30.11S
BELMAR         MOSUNNY   79  57  47 W9        30.11S
$$

PAZ047>061-062-071-311700-
EASTERN PENNSYLVANIA

CITY           SKY/WX    TMP DP  RH WIND       PRES   REMARKS
PHILADELPHIA   MOSUNNY   81  61  50 SW14      30.10F
ALLENTOWN      MOSUNNY   78  59  51 S10       30.09F
SCRANTON       MOSUNNY   76  57  51 W15       30.09S
$$

CTZ002-004>006-009-010-012-RIZ004-006-007-MAZ004-011-015-311700-
SOUTHERN NEW ENGLAND
 IN CT

CITY           SKY/WX    TMP DP  RH WIND       PRES   REMARKS
BRADLEY INTL   PTSUNNY   77  57  50 W12       30.08F
HARTFORD       LGT RAIN  77  56  48 SW10G18   30.09S
DANBURY        SUNNY     75  57  53 SW14      30.11F
WTRBRY/OXFORD  MOSUNNY   75  59  57 S12       30.13F
BRIDGEPORT     MOSUNNY   78  58  49 SW9       30.10F
MERIDEN        PTSUNNY   80  55  42 S9G18     30.10S
NEW HAVEN      MOSUNNY   78  60  53 VRB5      30.11S
CHESTER        FAIR      75  54  46 SW9G16    30.12F
GROTON         SUNNY     74  65  73 S8        30.11S
WILLIMANTIC    MOSUNNY   79  55  43 SW15G23   30.10F

 IN RI

CITY           SKY/WX    TMP DP  RH WIND       PRES   REMARKS
PROVIDENCE     MOSUNNY   78  63  59 SE14      30.11S
BLOCK ISLAND   SUNNY     75  61  60 SW12      30.14S
WESTERLY       SUNNY     79  57  46 SW9       30.13R

 IN MA

CITY           SKY/WX    TMP DP  RH WIND       PRES   REMARKS
BOSTON         MOSUNNY   78  58  49 S9        30.09F
WORCESTER      MOSUNNY   74  55  51 SW13      30.12S
WESTFIELD      CLOUDY    77  59  53 S12G20    30.08F
PROVINCETOWN   SUNNY     77  63  61 S12G20    30.13S
NANTUCKET      SUNNY     73  64  73 S10       30.15S
$$

ANZ330-335-338-340-345-350-353-355-311700-
COASTAL MARINE OBSERVATIONS


STATION/POSITION TIME  SKY/WX   TEMP    WIND        PRES    VSBY  WAVE
                                AIR SEA DIR/SP/G                  HT/PER
                 (UTC)          (F)     (DEG/KT/KT) (MB)    (MI)  (FT/S)
NY HARB ENTRANCE NOT AVBL
4S FIRE IS       NOT AVBL
23SW MTP         1600            71 71              1020.0          3/ 8
HUDSON CANYON    1600            73 75  220/  4/  6 1020.4          4/ 8
EXECUTION ROCKS  1600            75 70  210/ 10/ 12   N/A
WESTERN LI SOUND 1600            74     250/  6/ 10   N/A           0
CENTRAL LI SOUND 1500            73 73  220/  2/  4   N/A           1
EASTERN LI SOUND 1500            73 71  220/  4/  4   N/A
ROBBINS REEF     1600            76     220/ 16/ 20   N/A
$$


>>>>>>>>>>>>>>>>>>>>>>>>>>>> KEY <<<<<<<<<<<<<<<<<<<<<<<<<<<
>                                                          <
>     SKY/WX - SKY CONDITION/PRESENT WEATHER               <
>     TMP    - TEMPERATURE IN FAHRENHEIT                   <
>     DP     - DEWPOINT IN FAHRENHEIT                      <
>     RH     - RELATIVE HUMIDITY IN PERCENT                <
>     WIND   - DIRECTION AND SPEED IN MPH                  <
>     PRES   - MEAN SEA LEVEL PRESSURE IN INCHES OF HG     <
>     WCI    - WIND CHILL INDEX                            <
>     VSB    - VISIBILITY IN MILES                         <
>     HX     - HEAT INDEX                                  <
>     TC     - TEMPERATURE IN CELSIUS                      <
>     VRB    - VARIABLE WIND DIRECTION                     <
>                                                          <
>>>>>>>>>>>>>>>>>>>>>>>>>>>> KEY <<<<<<<<<<<<<<<<<<<<<<<<<<<




USA.gov is the U.S. government's official web portal to all federal, state and local government web resources and services.